Regional Weather Roundup
Issued by NWS Wilmington, NC

Home | Current Version | Previous Version | Text Only | Print | Product List | Glossary On
Versions: 1 2 3 4 5 6 7 8 9 10 11 12 13 14 15 16 17 18 19 20 21 22 23 24 25 26 27
000
ASUS42 KILM 300912
RWRILM
RWRILM
REGIONAL HOURLY WEATHER ROUNDUP
NATIONAL WEATHER SERVICE WILMINGTON NC
500 AM EDT THU MAR 30 2017

NOTE: "FAIR" INDICATES FEW OR NO CLOUDS BELOW 12,000 FEET WITH NO
SIGNIFICANT WEATHER AND/OR OBSTRUCTIONS TO VISIBILITY.

...............WFO WILMINGTON COUNTY WARNING AREA...............

......COASTAL NC AND SC COUNTIES......

CITY           SKY/WX    TMP DP  RH WIND       PRES   REMARKS
WILMINGTON     CLEAR     54  53  97 NE7       30.09F
N MYRTLE BEACH CLEAR     61  57  87 E9        30.06S
MYRTLE BEACH   CLEAR     61  58  90 E12       30.07S

......INLAND NC AND SC COUNTIES.......

CITY           SKY/WX    TMP DP  RH WIND       PRES   REMARKS
LUMBERTON      CLEAR     56  55  97 E5        30.09R
ELIZABETHTOWN  CLEAR     53  53 100 CALM      30.10S FOG
WHITEVILLE     CLEAR     56  54  94 NE5       30.08S
FLORENCE       CLEAR     56  55  97 E6        30.08R
DARLINGTON     CLEAR     56  54  93 NE5       30.08S
KINGSTREE      FAIR      57  55  94 CALM      30.06R
HARTSVILLE     FAIR      54  52  94 E3        30.07S
BENNETTSVILLE  FAIR      57  55  94 E6        30.08S
CONWAY         FAIR      55  55 100 NE6       30.07R
GEORGETOWN     FAIR      63  59  88 E7        30.06R
MARION         FAIR      54  54 100 E6        30.08R

....................REST OF NORTH CAROLINA......................

.........EASTERN NC.........

CITY           SKY/WX    TMP DP  RH WIND       PRES   REMARKS
CAPE HATTERAS  CLEAR     54  44  69 NE7       30.12R
JACKSONVILLE   CLEAR     46  45  96 NE3       30.11F
MOREHEAD CITY  CLEAR     52  50  93 NE5       30.11F
KENANSVILLE    PTCLDY    46  46 100 CALM      30.12F FOG
NEW BERN       CLEAR     48  48 100 NE5       30.14S
ELIZABETH CITY CLEAR     47  45  93 N5        30.15R

.........CENTRAL NC.........

CITY           SKY/WX    TMP DP  RH WIND       PRES   REMARKS
RALEIGH DURHAM CLOUDY    55  49  80 SE5G18    30.13S
ROCKY MOUNT    MOCLDY    49  47  93 NE3       30.15F
ROANOKE RAPIDS NOT AVBL
FAYETTEVILLE   CLEAR     54  51  90 E3        30.11S
HOFFMAN        MOCLDY    56  53  91 E8        30.09S

.........WESTERN NC.........

CITY           SKY/WX    TMP DP  RH WIND       PRES   REMARKS
CHARLOTTE      CLOUDY    60  53  77 SE12      30.08R
GREENSBORO     CLOUDY    58  55  90 SE10      30.10R
HICKORY        NOT AVBL
BOONE          NOT AVBL
ASHEVILLE      NOT AVBL

.....................REST OF SOUTH CAROLINA.....................

.........EASTERN SC.........

CITY           SKY/WX    TMP DP  RH WIND       PRES   REMARKS
CHARLESTON     MOCLDY    67  62  84 E8        30.03S
BEAUFORT MCAS  CLEAR     68  67  96 E5        30.01S
HILTON HEAD    CLEAR     66  66 100 VRB6      30.01F

.........CENTRAL SC.........

CITY           SKY/WX    TMP DP  RH WIND       PRES   REMARKS
COLUMBIA       CLOUDY    66  60  81 E7        30.04R
ORANGEBURG     PTCLDY    64  61  90 E3        30.04S
SUMTER SHAW    MOCLDY    61  57  86 SE5       30.04S

.........WESTERN SC.........

CITY           SKY/WX    TMP DP  RH WIND       PRES   REMARKS
GREENVILLE     NOT AVBL
ROCK HILL      CLOUDY    59  53  80 SE6       30.07R
ANDERSON       CLOUDY    63  52  67 E7        30.01R
CLEMSON        NOT AVBL
GREENWOOD      MOCLDY    61  56  83 SE6       30.03S


...................COASTAL AND OFFSHORE REPORTS..................

................LOCAL PIERS AND NC RESERVE................


STATION/POSITION TIME  SKY/WX   TEMP    WIND        PRES    VSBY
                                AIR SEA DIR/SP/G
                 (UTC)          (F)     (DEG/KT/KT) (MB)    (MI)
JOHNY MRCER PIER 0848            58 61   30/ 10/ 12 1018.0F
NC RESRV MASNBRO 0745            59      80/  7     1018.0
OCEAN CREST PIER NOT AVBL
SPRINGMAID  PIER 0848                               1017.3S


................COASTAL AND OFFSHORE BUOYS................


STATION/POSITION TIME  SKY/WX   TEMP    WIND        PRES    VSBY
                                AIR SEA DIR/SP/G
                 (UTC)          (F)     (DEG/KT/KT) (MB)    (MI)
DIMNDSHOAL 41025 0850            64 76   40/ 14/ 19 1018.9F
WVE H/P(F/S)=  7/ 9 SWL H/P/D(F/S/D)=  7/ 80/ 9

CAPE LOOKOUT     0800            62      60/ 14/ 15 1019.2F
ONSLOW BAY 41036 NOT AVBL
ONSLOW BAY 41064 0808            63      80/ 10/ 14 1019.3F
ONSLOW BAY 41159 0843               63                N/A
WVE H/P(F/S)=  5/10 SWL H/P/D(F/S/D)=  2/120/11

MASNBO INL 41110 0829               58                N/A
WVE H/P(F/S)=  4/ 9 SWL H/P/D(F/S/D)=  2/120/11

WILM HARBR 41108 0847               60                N/A
WVE H/P(F/S)=  3/ 9

27SE WRITB 41037 NOT AVBL
FRYING PAN 41013 0850            68 73   70/ 14/ 17 1017.6F
WVE H/P(F/S)=  5/10 SWL H/P/D(F/S/D)=  3/110/10

SUNST NRSH 41024 NOT AVBL
CAPRS NRSH 41029 NOT AVBL
EDISTO     41004 0750            71 70   80/ 14/ 17 1016.0
WVE H/P(F/S)=  5/ 9 SWL H/P/D(F/S/D)=  3/100/ 9



..........OFFSHORE BUOYS BEYOND 100 NM OFFSHORE...........
.....IN A TRIANGLE---HAT TO BERMUDA TO BAHAMAS TO HAT.....


STATION/POSITION TIME  SKY/WX   TEMP    WIND        PRES    VSBY
                                AIR SEA DIR/SP/G
                 (UTC)          (F)     (DEG/KT/KT) (MB)    (MI)
150E HAT   41001 NOT AVBL
W BERMUDA  41048 0850            66 68  350/ 17/ 19 1015.1R
WVE H/P(F/S)=  6/ 6 SWL H/P/D(F/S/D)=  3/ 70/10

ATLANTIC S 41049 0850            69 72  320/ 14/ 16 1013.0R
WVE H/P(F/S)= 10/10 SWL H/P/D(F/S/D)=  8/ 40/10

E BAHAMAS  41046 NOT AVBL
NE BAHAMAS 41047 0850            72 72  310/ 10/ 12 1015.4R
WVE H/P(F/S)=  5/ 9 SWL H/P/D(F/S/D)=  5/ 70/ 9

120E CANVRL41010 NOT AVBL

END




USA.gov is the U.S. government's official web portal to all federal, state and local government web resources and services.